Location: Arbon
(43.0005°N, 0.7472°E)
Time: 03:29:18
(UTC+00:00)

Helios 1B rocket - Pass Details

Date: 07 August 2020
Orbit: 575 x 583 km, 98.1° (Epoch: 27 September)

Event Time Altitude Azimuth Distance (km) Brightness Sun altitude
Rises 00:44:14 0° 11° (N) 2,798 7.1 -29.9°
Reaches altitude 10° 00:46:24 10° 10° (N) 1,894 6.0 -29.8°
Enters shadow 00:48:47 34° 5° (N) 961 4.0 -29.7°
